Location: Dehesa de la Cepeda
(40.6574°N, 4.3013°W)
Time: 11:03:08
(UTC+00:00)

Vanguard 2 Rocket - Pass Details

Date: 27 October 2021
Orbit: 555 x 3324 km, 32.9° (Epoch: 09 December)

Event Time Altitude Azimuth Distance (km) Brightness Sun altitude
Rises 06:03:17 0° 250° (WSW) 6,702 10.8 -7.9°
Reaches altitude 10° 06:08:25 10° 247° (WSW) 5,320 10.3 -7.0°
Maximum altitude 06:22:06 54° 176° (S) 2,029 8.8 -4.4°
Drops below altitude 10° 06:29:51 10° 102° (ESE) 3,121 11.7 -3.0°
Sets 06:32:06 0° 97° (E) 3,821 12.7 -2.6°
